Location: Newark
(48.1500°N, 2.9667°W)
Time: 12:28:22
(UTC+00:00)

Transit 4A - Visible Passes

Search period start: 27 January 2020 00:00
Search period end: 06 February 2020 00:00
Orbit: 872 x 973 km, 66.8° (Epoch: 27 January)

Date Brightness Start Highest point End Pass type
(mag) Time Alt. Az. Time Alt. Az. Time Alt. Az.
27 Jan 10.7 04:41:27 10° SE 04:44:08 13° ESE 04:46:48 10° ENE visible
27 Jan 8.1 06:23:31 10° SSW 06:29:30 74° ESE 06:35:23 10° NE visible
28 Jan 10.2 04:48:56 10° SSE 04:53:08 20° ESE 04:57:17 10° ENE visible
28 Jan 7.8 06:32:48 10° SW 06:38:49 81° NW 06:44:45 10° NNE visible
29 Jan 9.6 04:57:10 10° SSE 05:02:13 29° ESE 05:07:11 10° NE visible
29 Jan 7.9 06:42:18 10° SW 06:48:14 60° NW 06:54:03 10° NNE visible
30 Jan 9.0 05:05:47 10° S 05:11:21 41° ESE 05:16:50 10° NE visible
30 Jan 8.2 06:52:00 10° WSW 06:57:42 44° NW 07:03:19 10° NNE visible
31 Jan 8.3 05:14:41 10° SSW 05:20:34 59° ESE 05:26:21 10° NE visible
31 Jan 8.5 07:01:52 10° WSW 07:07:14 34° NW 07:12:33 10° NNE visible
01 Feb 10.3 03:41:51 12° SE 03:44:22 15° ESE 03:47:40 10° ENE visible
01 Feb 7.8 05:25:28 19° SSW 05:29:50 83° ESE 05:35:45 10° NE visible
02 Feb 9.7 03:52:12 21° SE 03:53:23 23° ESE 03:57:52 10° ENE visible
02 Feb 7.7 05:35:47 27° SW 05:39:11 73° NW 05:45:05 10° NNE visible
03 Feb 9.2 04:02:13 33° ESE 04:02:29 33° ESE 04:07:40 10° NE visible
03 Feb 7.9 05:45:47 29° WSW 05:48:37 53° NW 05:54:22 10° NNE visible
04 Feb 8.6 04:12:01 46° ESE 04:12:01 46° ESE 04:17:15 10° NE visible
04 Feb 8.3 05:55:34 27° W 05:58:07 40° NW 06:03:38 10° NNE visible
05 Feb 8.2 04:21:39 60° E 04:21:39 60° E 04:26:43 10° NE visible
05 Feb 8.6 06:05:11 23° W 06:07:41 31° NW 06:12:51 10° NNE visible
